TimeCST,TemperatureF,Dew PointF,Humidity,Sea Level PressureIn,VisibilityMPH,Wind Direction,Wind SpeedMPH,Gust SpeedMPH,PrecipitationIn,Events,Conditions,WindDirDegrees,DateUTC
12:15 AM,27.5,24.8,90,30.23,10.0,WSW,6.9,-,N/A,,Clear,240,2012-11-14 06:15:00
12:35 AM,25.5,22.5,88,30.23,10.0,SW,4.6,-,N/A,,Clear,230,2012-11-14 06:35:00
12:55 AM,22.3,19.8,90,30.23,10.0,SW,4.6,-,N/A,,Clear,220,2012-11-14 06:55:00
1:15 AM,25.2,23.7,94,30.22,10.0,SW,3.5,-,N/A,,Clear,230,2012-11-14 07:15:00
1:35 AM,25.2,23.0,91,30.22,10.0,WSW,4.6,-,N/A,,Clear,240,2012-11-14 07:35:00
1:55 AM,27.3,25.3,92,30.22,10.0,WSW,4.6,-,N/A,,Clear,250,2012-11-14 07:55:00
2:15 AM,25.7,22.3,87,30.23,10.0,WSW,6.9,-,N/A,,Clear,240,2012-11-14 08:15:00
2:35 AM,27.5,23.9,86,30.23,10.0,WSW,5.8,-,N/A,,Clear,240,2012-11-14 08:35:00
2:55 AM,26.2,22.3,85,30.23,10.0,SW,4.6,-,N/A,,Clear,230,2012-11-14 08:55:00
3:15 AM,23.9,20.8,88,30.23,10.0,SW,5.8,-,N/A,,Clear,220,2012-11-14 09:15:00
3:35 AM,25.7,23.0,89,30.22,10.0,SW,4.6,-,N/A,,Clear,230,2012-11-14 09:35:00
3:55 AM,26.8,23.9,89,30.22,10.0,WSW,5.8,-,N/A,,Clear,250,2012-11-14 09:55:00
4:15 AM,26.4,23.2,88,30.22,10.0,WSW,3.5,-,N/A,,Clear,240,2012-11-14 10:15:00
4:35 AM,25.0,21.7,87,30.22,10.0,SW,3.5,-,N/A,,Clear,230,2012-11-14 10:35:00
4:55 AM,25.0,22.5,90,30.22,10.0,SW,5.8,-,N/A,,Clear,230,2012-11-14 10:55:00
5:15 AM,23.0,20.8,91,30.22,10.0,SW,4.6,-,N/A,,Clear,220,2012-11-14 11:15:00
5:35 AM,24.6,22.5,91,30.22,10.0,SW,5.8,-,N/A,,Clear,220,2012-11-14 11:35:00
5:55 AM,25.2,22.5,89,30.21,10.0,SSW,4.6,-,N/A,,Clear,200,2012-11-14 11:55:00
6:15 AM,22.6,19.8,89,30.21,10.0,SSW,6.9,-,N/A,,Clear,200,2012-11-14 12:15:00
6:35 AM,24.6,21.6,88,30.20,10.0,SSW,5.8,-,N/A,,Clear,200,2012-11-14 12:35:00
6:55 AM,26.1,22.8,88,30.21,10.0,SW,8.1,-,N/A,,Clear,230,2012-11-14 12:55:00
7:15 AM,27.1,22.8,84,30.20,10.0,SW,6.9,-,N/A,,Clear,220,2012-11-14 13:15:00
7:35 AM,27.5,23.0,83,30.21,10.0,SW,8.1,-,N/A,,Clear,230,2012-11-14 13:35:00
7:55 AM,27.7,23.4,84,30.21,10.0,SW,4.6,-,N/A,,Clear,220,2012-11-14 13:55:00
8:15 AM,30.2,24.8,80,30.21,10.0,SW,6.9,-,N/A,,Clear,220,2012-11-14 14:15:00
8:35 AM,32.5,27.0,80,30.21,10.0,WSW,8.1,-,N/A,,Clear,240,2012-11-14 14:35:00
8:55 AM,34.0,27.5,77,30.21,10.0,SW,8.1,-,N/A,,Clear,220,2012-11-14 14:55:00
9:15 AM,37.4,28.9,71,30.20,10.0,SW,9.2,-,N/A,,Clear,220,2012-11-14 15:15:00
9:35 AM,41.0,28.9,62,30.20,10.0,SSW,9.2,-,N/A,,Clear,200,2012-11-14 15:35:00
9:55 AM,43.2,29.3,58,30.20,10.0,SSW,6.9,-,N/A,,Clear,210,2012-11-14 15:55:00
10:15 AM,48.0,27.5,45,30.19,10.0,SSW,11.5,-,N/A,,Clear,210,2012-11-14 16:15:00
10:35 AM,51.6,26.4,38,30.18,10.0,SW,15.0,-,N/A,,Clear,230,2012-11-14 16:35:00
10:55 AM,50.2,25.7,39,30.18,10.0,SW,15.0,-,N/A,,Clear,230,2012-11-14 16:55:00
11:15 AM,51.3,26.2,38,30.17,10.0,SSW,13.8,18.4,N/A,,Clear,210,2012-11-14 17:15:00
11:35 AM,51.3,26.1,38,30.17,10.0,SW,13.8,-,N/A,,Clear,220,2012-11-14 17:35:00
11:55 AM,53.1,25.5,34,30.15,10.0,SW,15.0,18.4,N/A,,Clear,220,2012-11-14 17:55:00
12:15 PM,55.4,25.0,31,30.14,10.0,SW,17.3,-,N/A,,Clear,220,2012-11-14 18:15:00
12:35 PM,56.8,24.3,28,30.13,10.0,SW,15.0,21.9,N/A,,Clear,220,2012-11-14 18:35:00
12:55 PM,56.3,24.3,29,30.12,10.0,SW,18.4,23.0,N/A,,Clear,220,2012-11-14 18:55:00
1:15 PM,56.3,24.3,29,30.11,10.0,SW,18.4,24.2,N/A,,Clear,220,2012-11-14 19:15:00
1:35 PM,56.3,23.5,28,30.10,10.0,SW,17.3,21.9,N/A,,Clear,230,2012-11-14 19:35:00
1:55 PM,56.1,23.7,29,30.10,10.0,SW,13.8,-,N/A,,Clear,220,2012-11-14 19:55:00
2:15 PM,56.8,23.7,28,30.09,10.0,WSW,15.0,24.2,N/A,,Clear,240,2012-11-14 20:15:00
2:35 PM,56.8,23.9,28,30.09,10.0,SW,15.0,-,N/A,,Clear,220,2012-11-14 20:35:00
2:55 PM,56.7,23.9,28,30.08,10.0,SW,18.4,-,N/A,,Clear,220,2012-11-14 20:55:00
3:15 PM,55.9,24.3,29,30.08,10.0,SW,15.0,-,N/A,,Clear,230,2012-11-14 21:15:00
3:35 PM,55.8,24.4,30,30.08,10.0,SW,11.5,-,N/A,,Clear,230,2012-11-14 21:35:00
3:55 PM,55.4,24.4,30,30.07,10.0,WSW,6.9,-,N/A,,Clear,240,2012-11-14 21:55:00
4:15 PM,55.0,24.8,31,30.07,10.0,WSW,3.5,-,N/A,,Clear,240,2012-11-14 22:15:00
4:35 PM,53.2,25.5,34,30.07,10.0,West,3.5,-,N/A,,Clear,260,2012-11-14 22:35:00
4:55 PM,52.2,25.9,36,30.07,10.0,NW,4.6,-,N/A,,Clear,320,2012-11-14 22:55:00
5:15 PM,48.7,26.4,42,30.07,10.0,NNW,3.5,-,N/A,,Clear,340,2012-11-14 23:15:00
5:35 PM,45.9,26.2,46,30.07,10.0,NNW,3.5,-,N/A,,Clear,340,2012-11-14 23:35:00
5:55 PM,46.0,27.0,47,30.08,10.0,NNW,3.5,-,N/A,,Clear,330,2012-11-14 23:55:00
6:15 PM,45.3,27.1,49,30.08,10.0,NNW,4.6,-,N/A,,Clear,340,2012-11-15 00:15:00
6:35 PM,41.0,25.9,55,30.08,10.0,Calm,Calm,-,N/A,,Clear,0,2012-11-15 00:35:00
6:55 PM,39.6,25.3,57,30.08,7.0,Calm,Calm,-,N/A,,Clear,0,2012-11-15 00:55:00
7:15 PM,37.2,26.1,64,30.08,10.0,South,8.1,-,N/A,,Clear,180,2012-11-15 01:15:00
7:35 PM,37.9,25.9,62,30.09,10.0,South,5.8,-,N/A,,Clear,190,2012-11-15 01:35:00
7:55 PM,36.9,25.7,64,30.10,10.0,South,4.6,-,N/A,,Clear,190,2012-11-15 01:55:00
8:35 PM,39.2,26.6,61,30.10,10.0,South,4.6,-,N/A,,Clear,190,2012-11-15 02:35:00
8:55 PM,39.0,26.6,61,30.10,10.0,South,3.5,-,N/A,,Clear,190,2012-11-15 02:55:00
9:15 PM,39.0,26.2,60,30.10,10.0,South,3.5,-,N/A,,Clear,190,2012-11-15 03:15:00
9:35 PM,38.3,26.8,63,30.11,10.0,Calm,Calm,-,N/A,,Clear,0,2012-11-15 03:35:00
9:55 PM,38.3,26.4,62,30.11,10.0,Calm,Calm,-,N/A,,Clear,0,2012-11-15 03:55:00
10:15 PM,38.7,26.4,61,30.12,10.0,Calm,Calm,-,N/A,,Clear,0,2012-11-15 04:15:00
10:35 PM,38.3,26.8,63,30.12,10.0,Calm,Calm,-,N/A,,Scattered Clouds,0,2012-11-15 04:35:00
10:55 PM,37.6,26.6,65,30.12,10.0,Calm,Calm,-,N/A,,Mostly Cloudy,0,2012-11-15 04:55:00
11:15 PM,39.2,27.1,62,30.12,10.0,WNW,3.5,-,N/A,,Overcast,290,2012-11-15 05:15:00
11:35 PM,38.5,26.8,63,30.13,10.0,Calm,Calm,-,N/A,,Overcast,0,2012-11-15 05:35:00
11:55 PM,38.1,27.1,65,30.14,10.0,Calm,Calm,-,N/A,,Overcast,0,2012-11-15 05:55:00